Location: Charbonni�res
(45.9952°N, 2.9982°E)
Time: 17:29:05
(UTC+00:00)

BREEZE-M (TANK) - Pass Details

Date: 29 November 2020
Orbit: 268 x 17602 km, 49.5° (Epoch: 16 January)

Event Time Altitude Azimuth Distance (km) Brightness Sun altitude
Rises 05:53:30 0° 226° (SW) 6,997 7.8 -12.5°
Reaches altitude 10° 06:00:15 10° 221° (SW) 4,059 6.7 -11.4°
Maximum altitude 06:07:29 37° 157° (SSE) 1,025 4.3 -10.2°
Drops below altitude 10° 06:10:13 - 85° (E) 1,508 5.9 -9.7°
Sets 06:11:32 0° 75° (ENE) 2,099 6.5 -9.5°
